Regional Weather Roundup
Issued by NWS Upton, NY

Current Version | Previous Version | Text Only | Print | Product List | Glossary Off
Versions: 1 2 3 4 5 6 7 8 9 10 11 12 13 14 15 16 17 18 19 20 21 22 23 24 25 26 27 28 29 30 31 32 33 34 35 36 37 38 39 40 41 42 43 44 45 46 47 48 49 50
000 ASUS41 KOKX 302104 RWROKX REGIONAL WEATHER ROUNDUP NATIONAL WEATHER SERVICE NEW YORK NY 500 PM EDT SAT APR 30 2016 NOTE: "FAIR" INDICATES FEW OR NO CLOUDS BELOW 12,000 FEET WITH NO SIGNIFICANT WEATHER AND/OR OBSTRUCTIONS TO VISIBILITY. NYZ071-072-176-178-NJZ106-104-302200- NEW YORK CITY METRO AREA CITY SKY/WX TMP DP RH WIND PRES REMARKS CENTRAL PARK SUNNY 61 32 33 VRB6 30.23R LAGUARDIA APRT PTSUNNY 59 35 40 S13 30.21R KENNEDY INTL PTSUNNY 55 41 59 S12 30.24R NEWARK/LIBERTY PTSUNNY 61 28 28 S14 30.21R BRNX BOT. GARD N/A 59 34 38 SE18 30.23R TETERBORO SUNNY 61 30 31 S9 30.19R $$ NYZ177-179-078>081-302200- LONG ISLAND NEW YORK CITY SKY/WX TMP DP RH WIND PRES REMARKS FARMINGDALE SUNNY 54 40 59 SW9 30.23S ISLIP PTSUNNY 53 37 54 S10 30.22S SHIRLEY SUNNY 54 34 46 S12 30.23S RIVERHEAD N/A 55 36 47 SE3 30.22S WESTHAMPTON SUNNY 51 35 54 S9 30.25S EAST HAMPTON FAIR 50 37 60 S9 30.23S MONTAUK POINT N/A 51 40 65 VRB5 30.25S $$ NYZ052-065-067-302200- HUDSON VALLEY CITY SKY/WX TMP DP RH WIND PRES REMARKS WHITE PLAINS MOSUNNY 59 38 45 S10 30.19R NEWBURGH CLOUDY 61 43 51 VRB6 30.18S MONTGOMERY CLOUDY 61 42 49 CALM 30.17R POUGHKEEPSIE CLOUDY 63 39 41 VRB3 30.16S ALBANY PTSUNNY 66 34 30 CALM 30.15S $$ NJZ001-105-106-008-010-013-015-019>022-104-302200- NEW JERSEY CITY SKY/WX TMP DP RH WIND PRES REMARKS NEWARK/LIBERTY PTSUNNY 61 28 28 S14 30.21R TETERBORO SUNNY 61 30 31 S9 30.19R CALDWELL PTSUNNY 61 35 37 S8 30.20R MORRISTOWN CLOUDY 61 39 44 S7 30.20R SOMERVILLE CLOUDY 60 41 49 CALM 30.18R SUSSEX CLOUDY 59 40 49 SW3 30.19R ANDOVER N/A 57 40 52 CALM 30.19R TRENTON CLOUDY 58 42 55 S5 30.19R MILLVILLE CLOUDY 58 43 57 SE8 30.20R ATLANTIC CITY SUNNY 55 33 43 E10 30.22S WRIGHTSTOWN CLOUDY 58 40 52 E8 30.18S TOMS RIVER SUNNY 57 32 38 E8 30.23R BELMAR SUNNY 55 33 43 E9 30.24R $$ PAZ047>061-062-071-302200- EASTERN PENNSYLVANIA CITY SKY/WX TMP DP RH WIND PRES REMARKS PHILADELPHIA CLOUDY 61 41 47 SE3 30.20S ALLENTOWN CLOUDY 57 42 57 SW3 30.19S SCRANTON CLOUDY 56 40 55 CALM 30.17S $$ CTZ002-004>006-009-010-012-RIZ004-006-007-MAZ004-011-015-302200- SOUTHERN NEW ENGLAND IN CT CITY SKY/WX TMP DP RH WIND PRES REMARKS BRADLEY INTL CLOUDY 64 38 38 CALM 30.15S HARTFORD CLOUDY 64 39 39 S12 30.17R DANBURY CLOUDY 62 34 35 S12G18 30.18S WTRBRY/OXFORD PTSUNNY 59 34 38 SW7 30.20R BRIDGEPORT SUNNY 61 41 47 S14 30.20S MERIDEN PTSUNNY 61 36 39 S13 30.19R NEW HAVEN PTSUNNY 57 39 51 SE12 30.21R CHESTER CLOUDY 55 34 44 SE8 30.21S GROTON SUNNY 51 43 74 S12 30.23S WILLIMANTIC CLOUDY 60 33 36 S9 30.19R IN RI CITY SKY/WX TMP DP RH WIND PRES REMARKS PROVIDENCE PTSUNNY 54 36 50 S15 30.23R BLOCK ISLAND CLOUDY 49 37 63 S14 30.24S WESTERLY CLOUDY 50 36 58 S8 30.25R IN MA CITY SKY/WX TMP DP RH WIND PRES REMARKS BOSTON MOSUNNY 51 35 54 E18 30.21S WORCESTER CLOUDY 60 34 37 SW6 30.16S WESTFIELD CLOUDY 64 37 36 NW6 30.15S PROVINCETOWN SUNNY 52 30 43 SE8 30.25R NANTUCKET SUNNY 51 30 44 E12 30.25R $$ ANZ330-335-338-340-345-350-353-355-302200- COASTAL MARINE OBSERVATIONS STATION/POSITION TIME SKY/WX TEMP WIND PRES VSBY WAVE AIR SEA DIR/SP/G HT/PER (UTC) (F) (DEG/KT/KT) (MB) (MI) (FT/S) NY HARB ENTRANCE 1950 49 52 180/ 10/ 12 1023.2 5/ 8 20S FIRE ISLAND 1950 47 49 150/ 6/ 8 1023.7 5/ 8 GREAT SOUTH BAY 2000 49 58 190/ 8/ 12 N/A 23 SSW MONTAUK P 1950 47 49 160/ 8/ 8 1023.7 4/ 7 15 E BARNEGAT LI 2022 51 N/A 6/ 8 HUDSON CANYON 1950 48 48 1023.5 5/ 8 KINGS POINT 2000 56 55 1022.4 EXECUTION ROCKS NOT AVBL CENTRAL LI SOUND 2000 53 160/ 12/ 16 N/A 1 EASTERN LI SOUND 2000 53 48 170/ 8/ 10 N/A ROBBINS REEF 2000 52 170/ 17/ 18 1021.9 $$ >>>>>>>>>>>>>>>>>>>>>>>>>>>> KEY <<<<<<<<<<<<<<<<<<<<<<<<<<< > < > SKY/WX - SKY CONDITION/PRESENT WEATHER < > TMP - TEMPERATURE IN FAHRENHEIT < > DP - DEWPOINT IN FAHRENHEIT < > RH - RELATIVE HUMIDITY IN PERCENT < > WIND - DIRECTION AND SPEED IN MPH < > PRES - MEAN SEA LEVEL PRESSURE IN INCHES OF HG < > WCI - WIND CHILL INDEX < > VSB - VISIBILITY IN MILES < > HX - HEAT INDEX < > TC - TEMPERATURE IN CELSIUS < > VRB - VARIABLE WIND DIRECTION < > < >>>>>>>>>>>>>>>>>>>>>>>>>>>> KEY <<<<<<<<<<<<<<<<<<<<<<<<<<<

USA.gov is the U.S. government's official web portal to all federal, state and local government web resources and services.